Weather in Stantsiya Padozero

Russia / Republic of Karelia     61°51′53″N   33°55′00″E
temp.,
°C
wind,
m/s
gust,
m/s
humid.,
%
clouds,
%
prec.,
mm/h
press.,
hPa
HPBL,
m
27 july, tue
tue2700:00+15s118724 1.3 101913
03:00+14wnw119349 1.7 102011
06:00+14ene139799 0.6 1020111
09:00+17e228683 0.9 1020363
12:00+23ne225791 0.1 10191016
15:00+20ene447422 1.2 1019451
18:00+21e35502 0.6 1018502
21:00+15sse22753 1.0 101818
28 july, wed
wed2800:00+14ese24704 0.0 101755
03:00+13se257058 0.0 1017101
06:00+16se146139 0.0 1015115
09:00+22sse1250100 0.0 1013414
12:00+27ssw123771 0.0 10111543
15:00+28wsw0234100 0.0 10092126
18:00+23se2353100 0.0 1008169
21:00+18n1177100 0.4 100718
29 july, thu
thu2900:00+16sw2393100 0.3 100676
03:00+15w2396100 0.3 100472
06:00+16sw259799 1.8 1004169
09:00+20ssw1275100 1.8 1002445
12:00+23s355178 0.5 10011324
15:00+21sw5776100 1.4 999680
18:00+19wsw51078100 1.9 999811
21:00+17sw31089100 2.6 998353
30 july, fri
fri3000:00+15sw413965 0.7 998389
03:00+14sw4129484 0.7 999338
06:00+15sw41194100 0.0 999441
09:00+19wsw5971100 0.0 999993
12:00+22sw5946100 0.0 9991826
15:00+21sw594992 0.0 9992032
18:00+21wsw5104623 0.0 9981980
21:00+17ssw4106368 0.0 998548
31 july, sat
sat3100:00+13ssw31191100 0.3 998302
03:00+13s289666 1.6 997208
06:00+13s41392100 0.0 995361
09:00+14ssw51184100 0.2 993825
12:00+13s5139599 0.9 992789
15:00+14ssw5139681 2.2 992997
18:00+17sw512865 1.2 9921287
21:00+15wsw512918 1.8 993766